Austin, MN

3:00 AM CDT on July 25, 2017 (GMT -0500)
Austin Municipal

Weather History for KAUM - November, 2013

Change the Weather History Date:

Monday, November 11, 2013

  Actual Average Record
Temperature  
Mean Temperature 26 °F -  
Max Temperature 39 °F 43 °F 60 °F (2007)
Min Temperature 12 °F 28 °F 12 °F (2013)
Degree Days  
Heating Degree Days 40    
Moisture  
Dew Point 18 °F    
Average Humidity 79    
Maximum Humidity 100    
Minimum Humidity 63    
Precipitation  
Precipitation 0.04 in - - ()
Sea Level Pressure  
Sea Level Pressure 30.36 in    
Wind  
Wind Speed 10 mph (NNW)    
Max Wind Speed 18 mph    
Max Gust Speed 29 mph    
Visibility 9 miles    
Events Snow    
Averages and records for this station are not official NWS values.
T = Trace of Precipitation, MM = Missing Value Source: NWS Daily Summary

Daily Weather History Graph

Daily Weather History Graph

Search for Another Location

Airport or City:

Trip Planner

Search our weather history database for the weather conditions in past years. The results will help you decide how hot, cold, wet, or windy it might be!

Date:

Astronomy

Nov. 11, 2013 Rise Set
Actual Time 7:00 AM CST 4:50 PM CST
Civil Twilight 6:30 AM CST 5:20 PM CST
Nautical Twilight 5:55 AM CST 5:55 PM CST
Astronomical Twilight 5:22 AM CST 6:28 PM CST
Moon 1:41 PM CST (11/11) 12:35 AM CST (11/11)
Length of Visible Light 10h 50m
Length of Day
9h 49m
Waxing Gibbous, 66% of the Moon is Illuminated
Nov 11
Waxing Gibbous
Nov 17
Full
Nov 25
Last Quarter
Dec 2
New
Dec 9
First Quarter

Hourly Weather History & Observations

Time (CST) Temp. Windchill Dew Point Humidity Pressure Visibility Wind Dir Wind Speed Gust Speed Precip Events Conditions
12:14 AM 35.6 °F 29.9 °F 30.2 °F 81% 30.07 in 10.0 mi SSW 6.9 mph - N/A   Mostly Cloudy
12:34 AM 35.6 °F 30.7 °F 30.2 °F 81% 30.07 in 10.0 mi SSW 5.8 mph - N/A   Overcast
12:54 AM 35.6 °F 31.7 °F 30.2 °F 81% 30.08 in 10.0 mi SW 4.6 mph - N/A   Mostly Cloudy
1:14 AM 35.6 °F 32.8 °F 30.2 °F 81% 30.08 in 10.0 mi West 3.5 mph - N/A   Mostly Cloudy
1:34 AM 37.4 °F 33.8 °F 30.2 °F 75% 30.09 in 10.0 mi West 4.6 mph - N/A   Overcast
1:54 AM 39.2 °F 33.6 °F 30.2 °F 70% 30.09 in 10.0 mi WNW 8.1 mph - N/A   Overcast
2:14 AM 39.2 °F 30.8 °F 30.2 °F 70% 30.09 in 10.0 mi NW 15.0 mph 20.7 mph N/A   Overcast
2:34 AM 37.4 °F 30.8 °F 30.2 °F 75% 30.09 in 10.0 mi NW 9.2 mph - N/A   Overcast
2:54 AM 37.4 °F 28.9 °F 30.2 °F 75% 30.10 in 10.0 mi NNW 13.8 mph - N/A   Overcast
3:14 AM 37.4 °F 31.4 °F 30.2 °F 75% 30.09 in 10.0 mi NNW 8.1 mph - N/A   Overcast
3:34 AM 37.4 °F 29.8 °F 30.2 °F 75% 30.11 in 10.0 mi North 11.5 mph 17.3 mph N/A   Overcast
3:54 AM 35.6 °F 28.0 °F 30.2 °F 81% 30.12 in 10.0 mi NNW 10.4 mph 19.6 mph N/A   Scattered Clouds
4:14 AM 35.6 °F 27.5 °F - N/A% 30.13 in - North 11.5 mph 17.3 mph N/A   Unknown
4:34 AM 35.6 °F 25.9 °F - N/A% 30.14 in - NNW 16.1 mph 21.9 mph N/A   Unknown
4:54 AM 33.8 °F 24.3 °F 30.2 °F 87% 30.16 in - North 13.8 mph 20.7 mph N/A Snow Light Snow
5:14 AM 33.8 °F 26.4 °F 30.2 °F 87% 30.17 in - North 9.2 mph 17.3 mph N/A Snow Light Snow
5:34 AM 32.0 °F 24.2 °F 30.2 °F 93% 30.17 in 1.2 mi North 9.2 mph 16.1 mph N/A Snow Light Snow
5:55 AM 32.0 °F 24.2 °F 32.0 °F 100% 30.17 in 1.8 mi North 9.2 mph 18.4 mph N/A Snow Light Snow
6:14 AM 30.2 °F 20.8 °F 30.2 °F 100% 30.19 in - North 11.5 mph 27.6 mph 0.01 in Snow Light Snow
6:34 AM 28.4 °F 16.6 °F 28.4 °F 100% 30.20 in - North 16.1 mph 23.0 mph 0.02 in   Overcast
6:54 AM 26.6 °F 13.4 °F 24.8 °F 93% 30.22 in 4.0 mi North 18.4 mph 28.8 mph 0.03 in Snow Light Snow
7:14 AM 24.8 °F 12.9 °F 24.8 °F 100% 30.24 in 1.2 mi North 13.8 mph 28.8 mph N/A Snow Light Snow
7:34 AM 24.8 °F 12.4 °F 23.0 °F 93% 30.26 in 1.0 mi North 15.0 mph 23.0 mph N/A Snow Snow
7:54 AM 24.8 °F 12.9 °F 23.0 °F 93% 30.28 in 0.2 mi NNW 13.8 mph 20.7 mph N/A Snow Snow
8:14 AM 24.8 °F 14.0 °F 23.0 °F 93% 30.28 in 1.8 mi North 11.5 mph 17.3 mph 0.01 in Snow Light Snow
8:34 AM 24.8 °F 14.6 °F 23.0 °F 93% 30.28 in 3.0 mi NNW 10.4 mph - 0.01 in Snow Light Snow
8:54 AM 24.8 °F 14.0 °F 21.2 °F 86% 30.29 in 7.0 mi North 11.5 mph 20.7 mph 0.01 in Snow Light Snow
9:14 AM 24.8 °F 14.0 °F 19.4 °F 80% 30.30 in 10.0 mi North 11.5 mph 23.0 mph N/A   Scattered Clouds
9:34 AM 24.8 °F 13.4 °F 19.4 °F 80% 30.31 in 10.0 mi North 12.7 mph 20.7 mph N/A   Mostly Cloudy
9:54 AM 24.8 °F 12.9 °F 19.4 °F 80% 30.32 in 10.0 mi North 13.8 mph 21.9 mph N/A   Mostly Cloudy
10:14 AM 24.8 °F 12.4 °F 19.4 °F 80% 30.33 in 10.0 mi North 15.0 mph 21.9 mph N/A   Mostly Cloudy
10:34 AM 23.0 °F 11.1 °F 17.6 °F 80% 30.34 in 10.0 mi North 12.7 mph 24.2 mph N/A   Scattered Clouds
10:54 AM 23.0 °F 9.6 °F 15.8 °F 74% 30.36 in 10.0 mi North 16.1 mph 26.5 mph N/A   Clear
11:14 AM 21.2 °F 7.8 °F 15.8 °F 80% 30.36 in 10.0 mi North 15.0 mph 20.7 mph N/A   Clear
11:34 AM 21.2 °F 6.8 °F 15.8 °F 80% 30.38 in 10.0 mi North 17.3 mph 24.2 mph N/A   Clear
11:54 AM 21.2 °F 8.3 °F 15.8 °F 80% 30.38 in 10.0 mi North 13.8 mph 23.0 mph N/A   Clear
12:14 PM 21.2 °F 8.3 °F 15.8 °F 80% 30.38 in 10.0 mi North 13.8 mph 24.2 mph N/A   Scattered Clouds
12:34 PM 21.2 °F 6.4 °F 15.8 °F 80% 30.39 in 10.0 mi North 18.4 mph 25.3 mph N/A   Mostly Cloudy
12:54 PM 21.2 °F 8.3 °F 15.8 °F 80% 30.39 in 10.0 mi NNW 13.8 mph 24.2 mph N/A   Mostly Cloudy
1:14 PM 21.2 °F 7.8 °F 14.0 °F 74% 30.40 in 10.0 mi NNW 15.0 mph 23.0 mph N/A   Scattered Clouds
1:34 PM 21.2 °F 8.9 °F 14.0 °F 74% 30.41 in 10.0 mi NNW 12.7 mph 23.0 mph N/A   Scattered Clouds
1:51 PM 21.2 °F 10.9 °F 14.0 °F 74% 30.41 in 10.0 mi North 9.2 mph 17.3 mph N/A   Scattered Clouds
2:14 PM 23.0 °F 11.7 °F 14.0 °F 68% 30.41 in 10.0 mi North 11.5 mph 17.3 mph N/A   Scattered Clouds
2:34 PM 24.8 °F 14.6 °F 15.8 °F 69% 30.42 in 10.0 mi North 10.4 mph 23.0 mph N/A   Clear
2:54 PM 23.0 °F 11.1 °F 14.0 °F 68% 30.44 in 10.0 mi North 12.7 mph 24.2 mph N/A   Clear
3:14 PM 21.2 °F 10.1 °F 12.2 °F 68% 30.45 in 10.0 mi North 10.4 mph 18.4 mph N/A   Clear
3:34 PM 19.4 °F 6.6 °F 10.4 °F 68% 30.46 in 10.0 mi NNW 12.7 mph 18.4 mph N/A   Clear
3:54 PM 21.2 °F 9.5 °F 10.4 °F 63% 30.46 in 10.0 mi NNW 11.5 mph 17.3 mph N/A   Clear
4:14 PM 21.2 °F 11.7 °F 12.2 °F 68% 30.47 in 10.0 mi North 8.1 mph 16.1 mph N/A   Clear
4:34 PM 19.4 °F 11.5 °F 12.2 °F 74% 30.47 in 10.0 mi NW 5.8 mph - N/A   Clear
4:54 PM 19.4 °F 9.5 °F 10.4 °F 68% 30.48 in 10.0 mi NNW 8.1 mph - N/A   Clear
5:14 PM 19.4 °F 11.5 °F 10.4 °F 68% 30.50 in 10.0 mi NNW 5.8 mph - N/A   Clear
5:34 PM 17.6 °F 9.3 °F 10.4 °F 73% 30.50 in 10.0 mi NW 5.8 mph - N/A   Clear
5:54 PM 17.6 °F 9.3 °F 10.4 °F 73% 30.52 in 10.0 mi NNW 5.8 mph - N/A   Clear
6:14 PM 17.6 °F 8.2 °F 10.4 °F 73% 30.53 in 10.0 mi NNW 6.9 mph - N/A   Clear
6:34 PM 17.6 °F 9.3 °F 10.4 °F 73% 30.54 in 10.0 mi NW 5.8 mph - N/A   Clear
6:54 PM 15.8 °F 10.2 °F 10.4 °F 79% 30.55 in 10.0 mi NW 3.5 mph - N/A   Clear
7:14 PM 15.8 °F 7.2 °F 10.4 °F 79% 30.56 in 10.0 mi NNW 5.8 mph - N/A   Clear
7:34 PM 15.8 °F 6.1 °F 10.4 °F 79% 30.56 in 10.0 mi NNW 6.9 mph - N/A   Clear
7:54 PM 15.8 °F 7.2 °F 8.6 °F 73% 30.57 in 10.0 mi NW 5.8 mph - N/A   Clear
8:14 PM 15.8 °F 6.1 °F 8.6 °F 73% 30.58 in 10.0 mi NW 6.9 mph - N/A   Clear
8:34 PM 15.8 °F 5.1 °F 10.4 °F 79% 30.59 in 10.0 mi NNW 8.1 mph - N/A   Clear
8:54 PM 15.8 °F 4.2 °F 10.4 °F 79% 30.60 in 10.0 mi NNW 9.2 mph - N/A   Clear
9:14 PM 15.8 °F 5.1 °F 8.6 °F 73% 30.61 in 10.0 mi NNW 8.1 mph - N/A   Clear
9:34 PM 15.8 °F 5.1 °F 8.6 °F 73% 30.62 in 10.0 mi NNW 8.1 mph - N/A   Clear
9:54 PM 15.8 °F 4.2 °F 8.6 °F 73% 30.63 in 10.0 mi NNW 9.2 mph - N/A   Clear
10:14 PM 15.8 °F 4.2 °F 8.6 °F 73% 30.64 in 10.0 mi NNW 9.2 mph - N/A   Clear
10:35 PM 14.0 °F 2.9 °F 8.6 °F 79% 30.65 in 10.0 mi NNW 8.1 mph - N/A   Clear
10:54 PM 14.0 °F 1.2 °F 8.6 °F 79% 30.65 in 10.0 mi NNW 10.4 mph - N/A   Clear
11:14 PM 14.0 °F 2.9 °F 8.6 °F 79% 30.66 in 10.0 mi NNW 8.1 mph - N/A   Clear
11:35 PM 12.2 °F 1.7 °F 8.6 °F 85% 30.66 in 10.0 mi NNW 6.9 mph - N/A   Clear
11:54 PM 12.2 °F 0.7 °F 8.6 °F 85% 30.67 in 10.0 mi NNW 8.1 mph - N/A   Clear